Facebook Twitter

Wetterstation Oberpfaffenhofen

Messwerte
  Temperatur Wetter Niederschlag Luftdruck Wind
Mo, 00:50 Uhr 12° - - 1016 hPa 19 km/h SW
Mo, 00:20 Uhr 12° - - 1016 hPa 21 km/h SW
So, 23:50 Uhr 12° - - 1016 hPa 19 km/h SW
So, 23:20 Uhr 12° - - 1016 hPa 19 km/h SW
So, 22:50 Uhr 11° - - 1016 hPa 21 km/h SW
So, 22:20 Uhr 8° - - 1016 hPa 13 km/h S
So, 21:50 Uhr 10° - - 1016 hPa 13 km/h S
So, 21:20 Uhr 10° - - 1016 hPa 14 km/h S
So, 20:50 Uhr 10° - - 1016 hPa 19 km/h SW
So, 20:20 Uhr 6° - - 1016 hPa 11 km/h SW
So, 19:50 Uhr 7° - - 1016 hPa 11 km/h SW
So, 19:20 Uhr 8° - - 1016 hPa 13 km/h SW
So, 18:50 Uhr 11° - - 1016 hPa 10 km/h SW
So, 18:20 Uhr 11° - - 1016 hPa 3 km/h
So, 17:50 Uhr 13° - - 1016 hPa 3 km/h
So, 17:20 Uhr 13° - - 1015 hPa 8 km/h SW
So, 16:50 Uhr 13° - - 1016 hPa 11 km/h S
So, 16:20 Uhr 15° - - 1016 hPa 16 km/h SO
So, 15:50 Uhr 15° - - 1016 hPa 16 km/h SO
So, 15:20 Uhr 14° - - 1017 hPa 19 km/h SO

Alle Zeitangaben MEZ